Wind_Speed
13 13 13 14 15 15 16 17 18 17 15 14 14 13 11 10 9 8 7 7 6 6 6 6 6 6 5 4 4 4 3 3 2 2 2 2 2 2 2 2 2 3 4 3 2 2 2 2 2
13 13 13 14 15 16 17 17 17 17 16 14 14 13 11 10 9 8 7 7 6 6 7 7 6 6 5 5 4 3 3 3 2 2 2 2 2 2 2 3 3 3 4 3 3 2 2 2 2
12 12 13 14 15 16 16 16 16 17 16 14 13 12 11 9 9 8 7 7 7 7 7 7 7 6 6 5 5 4 3 3 2 2 1 1 2 2 3 3 3 4 4 4 4 3 2 2 3
12 12 12 14 14 15 17 17 17 16 16 15 14 12 11 10 9 8 7 7 7 7 7 7 7 7 6 5 5 5 4 3 2 1 1 0 1 2 2 3 3 3 4 4 4 4 3 3 3
11 13 13 13 14 15 17 17 17 16 15 15 14 13 12 10 10 9 7 7 6 6 6 7 7 7 6 6 5 4 3 2 2 1 0 1 1 1 2 2 3 3 3 3 4 4 5 4 3
12 12 14 14 14 15 17 17 16 15 15 15 15 14 12 11 10 9 8 7 6 6 6 7 7 7 7 6 5 4 3 2 2 1 1 1 1 1 2 2 2 2 2 3 4 5 5 5 4
11 11 13 14 14 15 16 16 15 15 15 14 14 13 13 12 11 10 9 8 7 7 7 7 7 7 7 6 5 4 3 1 1 1 1 1 1 1 2 2 2 3 3 3 4 5 5 5 5
10 10 12 13 14 14 15 15 14 14 14 13 13 13 13 12 11 10 9 8 8 8 8 8 7 7 7 7 5 4 2 1 1 1 1 1 1 1 2 2 3 3 4 4 4 5 6 5 5
10 10 12 13 14 14 14 15 14 14 13 13 13 13 13 12 12 10 9 9 8 8 8 8 7 6 6 7 6 4 3 2 1 1 1 1 2 2 2 2 2 3 3 4 5 6 6 6 6
9 10 11 12 13 13 13 14 14 14 13 13 13 13 12 12 12 11 10 9 9 9 8 8 7 6 6 6 6 5 4 2 1 0 1 1 2 2 2 3 3 3 4 4 5 5 6 6 7
8 9 10 11 12 12 12 13 13 13 13 13 12 13 12 11 11 11 10 9 8 8 8 8 8 8 7 7 7 6 5 4 2 1 1 2 2 2 3 3 4 4 4 4 5 5 5 7 7
7 8 9 10 11 10 11 12 12 13 13 12 12 12 12 11 11 11 10 9 8 8 8 7 8 7 7 7 7 7 6 5 4 1 0 1 2 3 3 4 4 4 5 5 5 5 6 7 8
6 7 7 8 9 9 10 11 12 12 12 12 12 11 12 12 11 10 10 10 9 8 8 7 8 7 7 7 6 6 6 6 4 3 2 1 1 2 3 4 4 4 5 5 5 5 6 7 8
4 5 6 7 9 9 9 10 10 11 11 11 11 11 11 11 11 10 9 9 9 8 8 8 7 7 7 7 7 7 6 6 5 4 3 3 3 2 3 4 4 5 6 6 6 6 6 7 8
3 4 5 6 7 9 8 8 9 10 10 10 10 10 9 10 10 10 9 9 9 9 8 8 7 7 7 7 7 7 6 6 5 4 4 3 3 4 4 4 5 5 6 7 7 7 7 7 7
2 2 3 4 6 6 7 8 8 9 8 9 10 10 9 9 9 9 9 8 9 8 8 7 7 7 6 7 7 7 6 5 5 4 4 4 4 5 5 4 5 5 6 7 7 7 7 7 8
1 2 2 4 4 5 6 6 8 8 8 9 9 10 9 9 9 9 9 9 9 9 8 8 7 7 7 7 7 7 7 6 5 5 5 5 5 5 5 5 5 6 6 6 7 6 7 8 8
2 2 3 4 4 5 5 6 7 8 8 9 9 9 9 9 9 9 9 9 8 8 8 8 8 7 7 7 7 7 7 7 6 5 5 5 5 6 6 6 6 6 6 7 8 7 8 8 9
4 4 4 4 4 5 5 6 8 8 8 8 8 8 8 9 9 9 10 9 8 8 7 8 9 9 9 8 7 7 7 7 7 7 6 6 5 6 7 7 7 8 8 8 9 9 9 9 9
5 6 5 5 5 6 6 7 8 9 8 8 8 8 8 8 9 9 9 9 9 9 9 9 9 9 9 9 8 8 8 8 8 7 7 8 7 6 7 8 9 9 9 9 10 10 9 9 9
6 6 5 6 6 7 7 7 7 8 8 8 8 9 8 7 8 8 9 9 10 9 9 10 9 9 9 9 9 9 9 9 9 9 8 8 8 8 8 9 9 10 10 10 10 10 10 10 11
7 7 7 7 8 8 8 8 8 8 8 8 8 8 8 8 8 9 9 9 9 10 10 11 10 9 10 10 10 10 10 9 10 10 9 9 9 9 9 9 10 10 11 11 11 11 11 12 12
9 9 9 9 9 9 10 9 9 9 9 8 9 9 8 8 9 9 10 10 9 10 10 11 11 10 12 12 12 11 11 11 11 11 11 10 10 11 11 10 11 11 11 12 12 12 12 12 13
10 10 10 11 11 11 10 10 10 10 10 10 9 8 8 9 10 11 10 11 10 10 11 11 12 13 13 13 13 12 12 12 11 11 12 12 12 12 12 12 13 12 12 12 12 13 13 13 13
12 11 12 12 12 11 11 10 10 11 11 10 9 8 8 9 10 11 10 11 11 11 12 11 12 13 13 14 14 13 12 13 12 12 12 13 13 13 13 13 14 14 14 14 14 14 14 15 15
12 13 13 13 13 13 12 11 11 11 12 11 10 10 9 10 10 11 11 12 12 12 12 12 13 13 13 14 14 14 13 13 13 13 12 12 12 13 13 14 15 15 14 15 15 16 16 16 16
13 13 13 14 14 14 14 13 12 13 13 12 11 11 10 10 11 11 11 12 13 13 13 13 13 13 13 14 14 14 14 13 13 13 13 12 12 12 13 14 15 15 15 16 16 17 17 17 17
14 14 14 15 15 15 14 14 14 13 12 12 11 11 11 11 12 12 13 13 13 13 13 13 13 14 14 14 14 15 14 13 13 13 13 13 13 14 15 15 16 16 16 16 17 17 17 17 18
14 14 14 15 15 16 16 14 14 13 12 12 12 12 11 12 13 13 14 13 13 14 14 14 15 15 15 15 15 16 16 15 14 14 14 15 15 16 16 16 17 17 17 17 17 18 18 19 19
16 16 16 16 16 17 17 15 14 14 13 13 13 13 13 14 14 14 14 14 15 15 15 15 15 16 17 16 17 17 17 16 16 17 17 16 16 17 18 18 18 18 19 19 19 19 20 20 21
Wind_Direction
82 79 75 71 67 63 60 59 56 54 54 56 55 56 60 59 59 57 52 54 52 52 52 54 57 61 61 64 63 62 62 65 84 102 139 169 182 179 173 159 169 181 188 184 178 182 190 193 194
81 75 72 67 66 62 60 57 54 52 52 52 51 51 55 59 59 59 55 52 52 52 53 52 58 60 57 59 61 63 57 61 81 94 139 172 188 195 193 188 190 198 193 194 194 190 191 195 189
78 73 69 67 65 62 59 56 52 50 50 50 48 48 50 56 59 60 58 58 56 57 59 58 53 51 52 56 62 66 63 60 69 91 127 174 193 203 216 220 211 214 215 208 204 202 208 209 202
77 74 67 62 63 63 59 55 51 48 50 51 48 45 47 52 57 57 61 61 58 56 55 54 51 49 50 54 57 64 69 64 69 97 88 170 177 191 210 230 225 214 215 214 210 210 224 218 217
74 72 63 61 59 64 58 54 50 49 50 50 49 46 47 53 56 56 58 62 59 54 51 50 49 49 48 48 50 54 61 68 77 112 155 222 253 232 234 241 204 201 204 208 213 219 230 229 231
72 68 61 60 58 60 54 52 51 49 49 49 49 47 45 49 57 55 54 58 58 56 51 47 48 45 45 45 47 47 52 73 87 111 144 207 288 219 220 228 197 213 231 234 232 231 236 234 236
70 69 61 60 54 51 50 51 49 47 48 49 48 44 43 47 53 52 50 51 59 62 56 48 47 43 40 39 39 40 42 88 131 128 143 186 232 256 238 242 229 242 247 239 230 234 236 234 235
68 66 60 58 54 50 48 49 48 44 45 46 46 43 42 45 47 47 49 52 57 56 52 48 48 44 40 38 39 38 43 83 124 148 153 171 192 223 247 249 246 252 247 246 240 241 235 230 231
63 60 58 55 52 50 49 46 45 44 43 44 42 40 43 44 44 42 46 48 50 48 46 45 41 39 37 36 37 36 39 66 62 137 193 203 200 216 246 250 266 271 253 251 245 244 240 231 229
65 60 53 51 49 47 47 45 42 44 44 43 41 40 41 43 43 40 43 46 46 43 40 38 34 30 29 29 31 28 26 37 10 251 219 211 210 220 246 256 268 267 254 256 251 244 240 235 233
67 58 52 47 47 45 46 46 43 42 42 42 42 40 39 40 38 37 37 41 42 38 35 33 29 28 29 30 28 22 17 12 351 279 205 198 210 220 245 261 256 253 252 254 250 242 251 245 241
65 60 55 49 49 48 47 46 43 40 39 38 39 39 39 38 33 32 35 37 35 32 31 28 27 26 24 24 25 26 26 18 4 336 324 196 210 223 233 244 246 256 250 252 256 252 254 252 248
66 60 56 51 47 48 49 44 38 38 38 39 38 38 36 33 33 32 31 30 27 26 23 22 23 21 19 17 16 16 14 12 9 7 344 323 271 235 237 247 251 254 258 261 255 262 251 250 246
78 65 54 48 44 48 48 40 33 32 36 38 37 36 34 32 29 30 28 26 25 20 17 18 17 17 13 10 9 6 3 7 6 1 343 326 313 299 262 253 258 260 262 264 263 269 269 257 253
86 58 46 39 37 37 40 36 26 22 27 29 31 29 29 26 24 23 22 21 18 16 15 15 12 10 8 5 3 4 3 359 356 346 328 310 304 304 296 289 283 279 274 272 274 273 265 260 259
60 36 16 17 24 22 30 32 23 16 17 19 20 18 19 19 18 14 12 14 13 11 11 9 9 5 1 358 358 356 353 352 350 342 319 304 304 300 294 282 278 277 280 276 274 276 266 265 264
333 356 343 346 354 359 9 10 9 6 7 8 11 9 11 10 12 11 8 4 4 5 5 2 1 357 353 350 353 351 348 344 340 336 322 302 301 295 290 282 281 276 278 277 277 273 271 268 265
269 301 316 325 333 344 352 355 355 358 0 1 4 8 8 6 9 7 1 355 352 351 353 354 353 348 344 341 340 341 340 336 331 323 323 308 299 296 288 284 284 282 279 277 276 276 272 269 269
262 278 294 308 319 324 341 348 348 347 351 356 360 0 358 2 4 360 355 352 348 346 346 347 348 344 340 338 333 330 331 328 327 323 316 309 300 294 289 283 282 282 280 280 279 280 274 272 269
267 274 280 286 308 321 334 343 343 345 350 352 351 350 344 346 352 352 352 352 352 349 347 342 342 343 343 339 333 329 327 325 320 313 309 308 307 299 291 288 284 282 281 281 280 280 273 273 269
271 280 288 289 298 313 325 331 337 348 349 347 348 351 349 347 353 355 353 350 349 346 344 342 340 341 341 340 336 328 320 319 317 313 308 304 302 299 294 294 295 290 284 281 280 278 274 273 271
267 272 282 287 295 304 316 324 326 335 340 343 343 345 350 348 349 349 348 347 343 342 344 344 341 336 337 335 330 323 319 315 314 310 305 301 301 303 296 297 297 295 289 286 285 284 277 273 271
262 266 278 284 292 302 309 315 321 322 324 329 330 329 335 338 341 341 340 341 341 340 338 338 340 342 340 337 330 324 321 316 311 305 300 298 298 298 297 294 295 293 292 290 288 286 284 279 276
261 268 277 280 287 294 302 307 313 318 315 318 322 318 318 328 335 334 333 333 337 337 336 334 337 339 339 336 332 325 324 321 315 308 303 298 296 296 296 293 293 291 291 292 291 289 287 283 277
262 272 279 283 284 289 296 301 311 317 314 314 316 315 313 317 324 331 336 332 329 330 334 333 332 333 334 334 334 329 327 325 319 314 307 299 297 295 295 296 295 291 290 290 291 290 287 283 280
264 272 280 285 285 284 285 294 306 310 312 309 309 312 315 317 319 324 331 331 329 328 328 329 327 328 331 331 331 328 323 321 318 313 307 303 300 296 296 295 297 294 291 291 291 290 289 286 283
262 272 279 282 284 284 285 289 294 302 306 306 307 308 315 319 320 321 325 327 327 327 326 325 327 328 328 328 327 326 320 318 316 312 310 307 303 301 300 300 298 298 294 292 292 291 290 287 286
262 270 277 279 285 286 287 290 294 297 304 305 304 309 313 317 320 321 323 323 323 324 327 325 326 326 325 325 326 328 323 319 319 317 313 308 305 302 300 300 301 299 298 294 292 290 289 286 286
258 264 271 277 281 287 288 291 293 293 299 303 305 306 309 313 317 318 319 319 321 322 322 322 323 324 323 322 322 324 320 315 314 311 308 306 303 301 300 300 299 299 298 297 295 292 290 287 285
256 261 266 273 279 282 285 288 292 290 293 296 299 300 302 307 310 312 316 317 317 316 316 318 320 321 321 318 317 317 316 313 310 306 304 304 303 301 300 299 298 297 296 294 292 291 288 286 284
Height
5893 5893 5893 5893 5892 5891 5889 5888 5886 5886 5885 5884 5883 5882 5882 5882 5882 5884 5881 5880 5879 5879 5878 5878 5877 5877 5877 5877 5877 5877 5877 5877 5877 5877 5878 5879 5879 5880 5881 5882 5883 5883 5884 5885 5885 5886 5887 5887 5888
5895 5895 5895 5895 5893 5891 5891 5889 5888 5887 5887 5885 5884 5884 5883 5882 5882 5882 5881 5880 5880 5879 5879 5878 5878 5878 5877 5877 5877 5877 5877 5877 5877 5878 5878 5879 5880 5880 5881 5882 5883 5883 5884 5885 5885 5886 5887 5887 5888
5897 5897 5898 5896 5894 5893 5892 5891 5889 5889 5888 5886 5886 5885 5884 5883 5882 5882 5881 5881 5880 5880 5879 5879 5879 5878 5878 5878 5877 5877 5877 5878 5878 5878 5878 5879 5880 5880 5881 5881 5882 5883 5884 5885 5885 5886 5886 5887 5887
5900 5900 5899 5898 5896 5895 5893 5892 5891 5890 5889 5888 5887 5887 5885 5884 5883 5882 5881 5881 5881 5881 5880 5880 5879 5879 5878 5878 5878 5878 5878 5878 5878 5878 5878 5879 5879 5880 5880 5881 5881 5882 5883 5884 5885 5886 5886 5887 5887
5902 5901 5901 5899 5897 5896 5895 5894 5893 5892 5891 5890 5889 5888 5887 5886 5884 5883 5882 5882 5881 5881 5881 5880 5880 5879 5879 5878 5878 5878 5878 5878 5878 5878 5878 5879 5879 5879 5880 5881 5881 5882 5883 5883 5884 5885 5886 5886 5887
5904 5903 5902 5900 5899 5898 5897 5895 5895 5894 5893 5892 5890 5890 5888 5887 5886 5884 5883 5883 5882 5882 5881 5881 5880 5879 5879 5878 5878 5877 5877 5877 5878 5878 5878 5879 5879 5880 5880 5881 5881 5882 5882 5883 5883 5884 5885 5886 5886
5905 5904 5903 5902 5901 5900 5899 5897 5896 5896 5895 5893 5892 5891 5890 5889 5887 5886 5885 5884 5883 5882 5882 5881 5880 5880 5879 5878 5878 5877 5877 5877 5878 5878 5878 5878 5879 5879 5880 5880 5881 5881 5882 5882 5882 5883 5884 5884 5885
5906 5906 5904 5903 5903 5902 5901 5899 5898 5897 5896 5895 5894 5893 5891 5890 5889 5887 5886 5885 5884 5884 5883 5882 5881 5880 5879 5879 5878 5877 5877 5877 5877 5877 5878 5878 5878 5879 5879 5879 5880 5880 5881 5881 5882 5882 5883 5883 5884
5908 5908 5906 5905 5904 5904 5902 5901 5900 5899 5897 5896 5895 5894 5893 5892 5890 5889 5887 5886 5885 5885 5884 5883 5882 5881 5880 5879 5878 5877 5877 5877 5876 5877 5877 5877 5878 5878 5879 5879 5879 5879 5880 5880 5881 5881 5882 5882 5883
5909 5908 5907 5907 5906 5905 5904 5903 5902 5900 5899 5898 5897 5896 5894 5892 5891 5890 5888 5887 5886 5885 5885 5884 5883 5882 5881 5880 5879 5878 5877 5877 5876 5876 5876 5876 5877 5878 5878 5878 5878 5879 5879 5879 5880 5880 5881 5881 5882
5910 5909 5908 5907 5907 5906 5905 5904 5903 5902 5901 5900 5898 5897 5895 5894 5892 5891 5890 5888 5887 5886 5885 5884 5883 5882 5881 5880 5879 5878 5877 5876 5876 5876 5875 5876 5876 5877 5877 5877 5877 5878 5878 5878 5879 5879 5879 5880 5880
5911 5910 5910 5909 5908 5907 5906 5906 5905 5903 5902 5901 5899 5898 5896 5895 5894 5892 5891 5889 5888 5887 5886 5885 5884 5883 5882 5881 5880 5879 5877 5877 5876 5875 5875 5876 5876 5876 5877 5877 5877 5877 5877 5878 5878 5878 5878 5878 5878
5912 5912 5911 5910 5909 5908 5908 5907 5906 5904 5903 5902 5900 5899 5898 5896 5895 5893 5891 5890 5889 5888 5886 5885 5884 5883 5882 5881 5880 5879 5878 5877 5877 5876 5876 5875 5875 5876 5876 5876 5876 5876 5876 5877 5877 5876 5876 5876 5876
5913 5912 5911 5910 5909 5909 5908 5908 5907 5905 5904 5903 5902 5900 5899 5897 5895 5894 5892 5891 5889 5888 5887 5886 5885 5884 5883 5882 5880 5879 5878 5877 5876 5876 5875 5875 5875 5875 5875 5875 5875 5875 5875 5875 5875 5875 5874 5874 5874
5913 5913 5912 5911 5911 5910 5910 5909 5908 5906 5905 5904 5902 5901 5899 5898 5896 5894 5893 5891 5890 5889 5888 5886 5885 5884 5883 5882 5880 5879 5878 5877 5876 5876 5875 5875 5874 5874 5874 5874 5874 5874 5874 5874 5873 5873 5872 5872 5872
5913 5913 5912 5912 5911 5910 5911 5910 5908 5907 5906 5904 5903 5901 5899 5898 5896 5895 5893 5892 5890 5889 5888 5886 5885 5884 5883 5881 5880 5879 5878 5877 5876 5875 5875 5874 5873 5873 5873 5873 5873 5873 5873 5872 5872 5872 5871 5871 5871
5914 5913 5912 5912 5911 5910 5910 5910 5909 5907 5906 5905 5903 5901 5899 5898 5896 5894 5893 5891 5890 5889 5887 5886 5885 5883 5882 5881 5880 5878 5877 5876 5875 5875 5874 5873 5873 5872 5872 5872 5872 5871 5871 5870 5870 5870 5869 5869 5869
5914 5913 5912 5912 5911 5911 5910 5910 5909 5907 5906 5905 5903 5901 5899 5898 5896 5894 5893 5891 5889 5888 5887 5886 5884 5883 5882 5880 5879 5878 5877 5876 5875 5874 5873 5872 5872 5871 5870 5870 5870 5870 5869 5869 5868 5868 5867 5867 5866
5913 5913 5912 5912 5912 5911 5910 5909 5908 5907 5906 5904 5903 5901 5899 5898 5896 5894 5892 5891 5889 5887 5886 5885 5884 5883 5881 5879 5878 5877 5875 5874 5874 5873 5872 5871 5870 5870 5869 5869 5868 5868 5867 5867 5866 5866 5865 5865 5864
5913 5913 5912 5912 5911 5911 5910 5909 5908 5906 5905 5904 5902 5901 5899 5898 5896 5894 5893 5891 5889 5887 5886 5884 5883 5882 5880 5879 5877 5875 5874 5873 5872 5871 5870 5870 5869 5868 5868 5867 5867 5866 5865 5865 5864 5864 5863 5863 5862
5912 5912 5912 5911 5911 5910 5910 5909 5908 5906 5905 5903 5902 5900 5898 5897 5895 5894 5893 5891 5889 5887 5885 5884 5882 5881 5879 5877 5876 5874 5873 5872 5871 5870 5869 5868 5867 5866 5866 5865 5864 5863 5863 5862 5862 5861 5861 5860 5860
5911 5911 5911 5910 5910 5909 5909 5908 5907 5906 5904 5903 5901 5899 5898 5896 5895 5894 5892 5890 5889 5887 5885 5883 5881 5879 5878 5876 5875 5873 5872 5870 5869 5867 5866 5865 5865 5864 5863 5863 5862 5861 5860 5860 5859 5858 5858 5857 5857
5910 5910 5910 5909 5909 5908 5908 5907 5907 5905 5903 5902 5901 5899 5897 5896 5894 5893 5891 5889 5888 5886 5884 5882 5880 5878 5876 5875 5873 5871 5870 5868 5867 5865 5864 5863 5863 5862 5861 5860 5859 5859 5858 5857 5856 5855 5855 5854 5854
5908 5909 5908 5908 5907 5907 5907 5906 5905 5904 5902 5901 5900 5898 5896 5895 5893 5892 5890 5888 5886 5884 5882 5880 5878 5877 5874 5872 5871 5869 5868 5866 5864 5863 5862 5861 5860 5859 5858 5857 5856 5856 5855 5854 5853 5852 5852 5851 5850
5907 5907 5907 5906 5906 5906 5905 5904 5904 5902 5900 5899 5898 5896 5895 5894 5892 5891 5889 5887 5885 5883 5881 5879 5877 5875 5873 5871 5869 5867 5866 5864 5862 5861 5859 5858 5857 5857 5856 5855 5853 5852 5852 5851 5850 5849 5848 5847 5846
5904 5905 5906 5905 5904 5904 5903 5902 5903 5901 5899 5897 5896 5895 5893 5892 5891 5889 5888 5885 5883 5881 5879 5877 5875 5873 5871 5869 5867 5865 5863 5862 5860 5858 5857 5856 5855 5854 5853 5852 5851 5849 5848 5847 5846 5845 5844 5843 5842
5902 5902 5902 5902 5901 5901 5901 5901 5900 5899 5897 5896 5895 5893 5892 5890 5889 5887 5886 5884 5882 5879 5877 5875 5874 5872 5869 5867 5865 5862 5860 5859 5857 5856 5854 5853 5852 5851 5850 5849 5847 5845 5844 5843 5842 5840 5839 5838 5837
5899 5899 5899 5899 5898 5898 5898 5898 5898 5896 5895 5894 5893 5891 5890 5889 5887 5885 5883 5881 5879 5877 5875 5873 5872 5870 5867 5865 5862 5860 5858 5856 5855 5853 5852 5850 5849 5848 5846 5845 5844 5842 5840 5839 5837 5836 5835 5833 5832
5896 5896 5896 5896 5895 5895 5894 5897 5895 5893 5892 5892 5891 5889 5888 5886 5884 5883 5881 5879 5877 5875 5873 5871 5869 5867 5865 5863 5860 5858 5855 5853 5852 5850 5849 5847 5846 5844 5842 5841 5840 5838 5836 5835 5833 5831 5830 5828 5827
5892 5892 5893 5893 5892 5891 5891 5894 5891 5890 5889 5889 5888 5886 5885 5884 5882 5880 5878 5876 5874 5873 5871 5869 5867 5865 5863 5860 5858 5855 5853 5850 5848 5847 5845 5844 5842 5840 5839 5837 5835 5833 5832 5830 5828 5826 5825 5823 5822